THOR ABLESTAR R/B, 1508

Orbit data source: Space-Track

THOR ABLESTAR R/B, 1508 is space debris in LEO originally from a launch on Fri, 13 Aug 1965 UTC launched from the Air Force Western Test Range (AFWTR). Debris objects in space refer to the collection of defunct objects orbiting the Earth. Examples of debris include non-operational satellites, rocket bodies, and fragments generated from explosions, collisions, or faulty payload assembly.

Loading next visibility...
Identifier
1508, 1965-065B
Orbit
LEO
Last TLE update
10 hours ago
Origin
Manufacturer
Aerojet
Mission
Spacecraft
Bus & Motor
ABLESTAR, Unknown motor
Mass
~600 kg wet, 600 kg dry
Launch date (UTC)
1965-08-13 (60 years ago)
Launch vehicle
Unknown
Launch site
Air Force Western Test Range (AFWTR)
Object type
Payload
Rocket body
Debris
Shape & HBR
Cyl, 2.4 m
Radar Cross Section
6.048 m², Large (>1 m²)

Expand to show TLE details & history

TLE from 10 hours ago
0 THOR ABLESTAR R/B
1 01508U 65065B   25199.55345050  .00000028  00000-0  37399-4 0  9994
2 01508  90.1496 303.1830 0041733 190.6348 180.9863 13.36074570920868
Epoch: 2025-07-18T13:16Z
TLE epoch observation values (Epoch: 2025-07-18T13:16:58.123Z)
Latitude
11.56711°
Longitude
167.3071°
Altitude
1,157.426 km
Speed
7.26 km/s
True Right ascension
20h 12m 36s
True Declination
11° 30' 12"
Sunlit
Object was in full shadow at epoch
Visualization orbit readout
Latitude
26.60598°
Longitude
-12.58194°
Altitude
1,101.86 km
Speed
7.316 km/s
Apparent Right ascension
05h 08m 11s
Apparent Declination
-7° 43' 34"
Sunlit
Object is in daylight
Visualization observer readout
Local Sidereal Time
11:46:16
Azimuth
270.121° WNW
Elevation
-12.239°
Doppler factor
1
Orbital elements
Apogee altitude
1,152.304 km
Perigee altitude
1,089.712 km
Semi-major axis
7,499.145 km
Eccentricity
0.00417
Inclination
90.1496°
RAAN
303.183°
Arg. of periapsis
190.6348°
True anomaly
180.97811°
Mean anomaly
180.9863°
Eccentric anomaly
180.9822°
Mean motion
3.34215 °/min
Orbital period
107.72 mins
BSTAR
0.000037399
Loading maneuver chart data...
Loading SW <> Apogee altitude chart data...
Loading historical data...
Loading historical data...
Loading historical data...
Loading historical data...
Loading historical data...
Loading historical data...
Loading historical data...
|